Lid_Strength_Index
1 -0 -1 -1 -1 -1 -1 -1 -1 -1 -1 -1 -1 -1 -1 -1 -1 -1 -1 -1 -1 -1 -1 -1 -1 -1 -1 -1 -1 -1 -1 -1 -1 -1 -1 -1 -1 -1 -1 -1 -1 -1 -1
0 -0 -1 -1 -1 -1 -1 -1 -1 -1 -1 -1 -1 -1 -1 -1 -1 -1 -1 -1 -1 -1 -1 -1 -1 -1 -1 -1 -1 -1 -1 -1 -1 -1 -1 -2 -2 -2 -2 -1 -1 -1 -2
0 -0 -0 -1 -1 -1 -1 -1 -1 -1 -1 -1 -1 -1 -1 -1 -1 -1 -1 -1 -1 -1 -1 -1 -1 -1 -1 -1 -1 -1 -1 -1 -1 -1 -1 -0 -0 -1 -2 -1 -1 -1 -1
0 -0 -0 -1 -1 -1 -1 -1 -1 -1 -1 -1 -1 -1 -1 -1 -1 -1 -1 -1 -1 -1 -1 -1 -1 -1 -1 -1 -1 -1 -1 -1 -1 -2 -0 -0 -0 -1 -1 -1 -1 -1 -2
0 -0 -0 -1 -1 -1 -1 -1 -1 -1 -1 -1 -1 -1 -1 -1 -1 -1 -1 -1 -1 -1 -1 -1 -1 -1 -1 -1 -1 -1 -1 -1 -1 -0 1 1 1 -1 -1 -1 -1 -1 -1
0 0 -1 -1 -1 -1 -1 -1 -1 -1 -1 -1 -1 -1 -1 -1 -1 -1 -1 -1 -1 -1 -1 -1 -1 -1 -1 -1 -1 -1 -1 -1 -1 0 1 -0 1 -1 -1 -1 -1 -1 -1
1 0 -0 -2 -1 -1 -1 -1 -1 -1 -1 -1 -1 -1 -1 -1 -1 -1 -1 -1 -1 -1 -1 -1 -1 -1 -1 -1 -1 -1 -1 -1 0 1 1 1 0 -1 -1 -1 -1 -1 -1
5 5 4 1 -1 -1 -1 -1 -2 -1 -1 -1 -1 -1 -1 -1 -1 -1 -1 -1 -1 -1 -1 -1 -1 -1 -1 -1 -1 -1 -1 -2 -0 1 1 1 -1 -1 -1 -1 -1 -1 -1
7 6 7 6 4 -0 0 -0 -1 -1 -1 -1 -2 -1 -1 -1 -1 -1 -1 -1 -1 -1 -1 -1 -1 -1 -1 -1 -1 -1 -1 -2 0 1 0 1 -2 -1 -1 -1 -1 -1 -1
8 8 8 8 7 6 5 3 2 1 -1 -1 -1 -1 -1 -1 -1 -1 -2 -1 -1 -1 -1 -1 -1 -1 -1 -2 -1 -2 -1 -1 0 1 1 1 -2 -2 -2 -1 -1 -1 -1
8 9 9 9 9 8 7 6 5 3 2 1 0 -0 -0 0 -0 -0 -1 -1 -2 -2 -2 -1 -1 -1 -1 -1 -1 -1 -1 0 0 1 1 -1 -2 -2 -2 -2 -1 -1 -1
10 9 9 8 8 8 7 7 7 5 4 4 4 2 -0 -1 -0 -1 -1 -1 -1 -1 -1 -2 -1 -1 -1 -0 -0 -1 -0 0 0 1 0 -1 -2 -2 -2 -2 -1 -1 -1
7 7 7 9 9 8 5 4 4 4 4 5 5 3 2 2 -1 -0 -0 0 0 -1 -0 -0 -0 -0 -0 -0 0 0 -0 0 -0 0 -0 -2 -2 -2 -2 -2 -2 -2 -1
7 6 5 5 6 6 5 5 5 5 4 4 3 3 3 1 1 0 0 0 -0 0 0 0 0 -0 -0 -0 0 0 1 0 -0 -0 -0 -1 -2 -2 -2 -2 -2 -2 -1
7 7 6 6 6 6 6 5 5 5 5 5 4 4 4 4 4 1 2 1 1 0 0 1 0 1 1 0 -0 0 0 1 1 0 0 -1 -1 -2 -2 -2 -2 -2 -2
8 8 7 6 6 6 6 6 6 5 5 5 5 5 4 4 5 3 3 2 1 1 1 -0 0 1 2 1 0 0 0 0 1 1 0 -0 -1 -1 -2 -2 -2 -2 -2
9 8 7 6 6 7 7 7 6 6 5 5 5 5 4 5 5 4 3 3 2 0 0 1 -0 0 0 1 1 0 0 0 0 0 0 -0 -0 -1 -1 -2 -2 -2 -2
10 9 8 6 7 7 7 7 7 6 6 6 6 5 4 5 5 4 5 4 3 2 1 1 0 1 1 1 1 1 1 1 1 0 0 0 -0 -0 -1 -1 -2 -2 -2
9 9 8 7 7 7 7 6 6 6 6 6 6 5 6 5 4 5 5 5 4 3 2 1 1 1 2 2 2 1 1 1 1 0 0 1 0 -0 -0 -1 -1 -1 -2
10 9 8 8 7 7 6 6 6 6 6 6 5 5 5 5 4 5 5 5 5 4 4 3 2 1 1 1 2 2 2 2 2 1 1 1 1 1 1 -0 -0 -0 -1
10 10 9 8 7 6 6 7 6 6 5 4 3 3 4 4 3 4 5 5 5 5 5 4 2 2 2 1 2 3 2 2 2 2 1 1 1 1 1 0 0 0 -0
10 9 8 6 5 4 4 4 4 4 4 3 2 2 2 2 2 2 4 4 5 5 5 4 4 3 2 1 4 4 6 4 2 3 2 1 1 1 1 1 1 1 1
8 7 6 5 4 3 3 3 3 3 3 3 2 2 1 1 1 2 2 3 4 5 5 5 4 3 3 2 2 3 6 7 4 4 4 4 2 2 1 1 1 1 1
6 6 5 4 3 2 2 2 3 4 4 2 2 1 1 1 1 1 1 2 3 4 4 4 2 2 3 3 2 2 2 3 6 7 5 5 5 4 1 1 1 1 1
5 5 4 4 3 2 2 2 2 3 2 2 2 2 1 1 1 1 1 2 3 3 3 3 2 3 2 3 3 3 3 3 3 5 6 6 6 7 7 3 1 2 2
4 4 4 3 3 3 3 3 4 4 3 3 3 3 2 2 1 1 1 1 2 2 3 3 3 3 2 2 2 2 3 4 4 4 6 6 7 7 7 7 6 2 2